Regional Weather Roundup
Issued by NWS Charleston, SC

Current Version | Previous Version | Graphics & Text | Print | Product List | Glossary On
Versions: 1 2 3 4 5 6 7 8 9 10 11 12 13 14 15 16 17 18 19 20 21 22 23 24 25 26 27 28 29 30 31 32 33 34 35 36 37 38 39 40 41 42 43 44 45 46 47 48 49 50
000
ASUS42 KCHS 251627
RWRCHS

REGIONAL WEATHER ROUNDUP
NATIONAL WEATHER SERVICE CHARLESTON SC
1200 PM EDT SAT MAR 25 2017

NOTE: "FAIR" INDICATES FEW OR NO CLOUDS BELOW 12,000 FEET WITH NO
SIGNIFICANT WEATHER AND/OR OBSTRUCTIONS TO VISIBILITY.

NOT ALL STATIONS ARE QUALITY CONTROLLED. USE DATA WITH CAUTION...
ESPECIALLY DEWPOINT OBSERVATIONS.

SCZ027-030-031-034>040-042>050-251700-
...SOUTHEAST SOUTH CAROLINA...

CITY           SKY/WX    TMP DP  RH WIND       PRES   REMARKS
N CHARLESTON   PTSUNNY   74  50  42 SE12      30.34F
WATERFRONT PRK   N/A     65  57  75 E7        30.34S
JOHNS ISLAND   CLOUDY    72  54  53 E12       30.35S
PINOPOLIS        N/A     72  52  49 S6        30.26S
MONCKS CORNER  CLOUDY    72  46  40 S9        30.33F
SUMMERVILLE    CLOUDY    72  50  46 S5        30.34F
BEAUFORT MCAS  MOSUNNY   73  59  61 SE6       30.33F
BEAUFORT ARPT  FAIR      72  55  56 SE6       30.33F
HILTON HEAD IS PTSUNNY   68  57  68 E3        30.34F
WALTERBORO     CLOUDY    70  52  52 SE12      30.34S
ALLENDALE      PTSUNNY   73  50  43 S13       30.30F

...SOUTHERN MIDLANDS AND PEE DEE...

CITY           SKY/WX    TMP DP  RH WIND       PRES   REMARKS
GEORGETOWN     CLOUDY    72  52  49 SW6       30.35F
KINGSTREE      FAIR      72  46  40 S8        30.33F
ORANGEBURG     CLOUDY    71  53  52 S12       30.33F
BARNWELL       PTSUNNY   73  55  53 S8G18     30.31F
AIKEN          PTSUNNY   70  54  56 S12       30.34F
MANNING        FAIR      72  50  46 SW9       30.33F
COLUMBIA       CLOUDY    72  52  49 S13       30.31F
SUMTER         PTSUNNY   72  50  45 S8        30.31S
FLORENCE       MOSUNNY   72  50  45 SW10      30.33F
MYRTLE BEACH   NOT AVBL
N MYRTLE BEACH CLOUDY    66  55  67 SE6       30.35F

$$

GAZ063-065-086>088-099>101-113>116-118-119-134>141-150-251700-
...SOUTHEAST GEORGIA...

CITY           SKY/WX    TMP DP  RH WIND       PRES   REMARKS
SAVANNAH ARPT  PTSUNNY   77  50  38 SE12      30.32F
HUNTER AAF     MOSUNNY   76  56  49 SE12      30.29F
FORT STEWART   PTSUNNY   73  54  51 SE8       30.29F
STATESBORO     PTSUNNY   74  55  51 S10       30.30F
SYLVANIA       CLOUDY   N/A N/A N/A S8        30.31F
CLAXTON        FAIR      74  57  55 E8G16     30.30F

...CSRA...CENTRAL AND FAR SOUTHEAST GEORGIA...

CITY           SKY/WX    TMP DP  RH WIND       PRES   REMARKS
THOMSON        PTSUNNY   71  55  56 SW8       30.34F
AUGUSTA-BUSH   PTSUNNY   74  55  51 S12       30.30F
AUGUSTA-DANIEL PTSUNNY   71  53  52 S12       30.31F
SWAINSBORO     CLOUDY    73  52  46 SE12      30.30F
VIDALIA        MOSUNNY   75  55  50 SE10      30.29F
EASTMAN        PTSUNNY   74  42  31 S8        30.30F
HAZLEHURST     PTSUNNY   74  60  60 S6        30.27F
ALMA           PTSUNNY   75  58  55 SE10      30.29F
WAYCROSS       PTSUNNY   78  62  57 SE9       30.29F
JESUP          FAIR      77  54  44 S12       30.30F
BAXLEY         PTSUNNY   75  59  57 SE9       30.28F
BRUNSWICK      MOSUNNY   73  59  60 E12G18    30.32S
SAINT SIMONS   MOSUNNY   73  57  57 E12       30.32S

$$

SCZ027-028-034-036>038-045-046-048>050-GAZ119-141-251700-
...LAKE AND SUPPLEMENTAL COASTAL OBSERVATIONS...

STATION/POSITION TIME  TEMP    WIND        PRES    WAVE   SWELL
                       AIR SEA DIR/SP/G            HT/PER HT/PER/DIR
                 (UTC) (F)     (DEG/KT/KT) (MB)    (FT/S) (FT/S/D)
WINYAH BAY       1545   67     140/  4     1028.0S
LAKE MURRAY      1620   66     200/  7/  9 1025.7
ACE BASIN NERRS  1530   71     100/  3     1027.0S
FORT PULASKI     1600   63 61   90/  8/  9 1027.3
SAPELO ISLAND    1600   76     120/  9     1027.0

$$

ANZ835-935-AMZ111-154-330-350-352-354-370-450-454-472-251700-
...C-MAN AND BUOY OBSERVATIONS...

STATION/POSITION TIME  TEMP    WIND        PRES    WAVE   SWELL
                       AIR SEA DIR/SP/G            HT/PER HT/PER/DIR
                 (UTC) (F)     (DEG/KT/KT) (MB)    (FT/S) (FT/S/D)
BUOY 41004       1550   70 70  120/ 14/ 16 1027.2F   4/ 8   3/140/ 8
BUOY 41008       1550   66 62   90/  8/ 10 1026.8R   4/ 9   3/100/ 9
FOLLY BEACH CMAN 1600   64      80/  7/  8 1028.1F
CAPERS NEARSHORE 1608   63     100/  4/  6 1027.7F
FRIPP NEARSHORE  1608   63 60  100/  4/  6 1027.2S


STATION/POSITION TIME  TEMP    WIND        PRES    WAVE   SWELL
                       AIR SEA DIR/SP/G            HT/PER HT/PER/DIR
                 (UTC) (F)     (DEG/KT/KT) (MB)    (FT/S) (FT/S/D)
5E ST. MARYS GA  1600      65                N/A     4/ 8   2/100/11
FRYING PAN BUOY  1610   70 72  170/ 10/ 14 1028.2
BUOY 41025       1550   69 76  270/ 14/ 17 1028.0F   3/ 6   2/ 90/10
CAPE LOOKOUT NC  1600   71     210/ 11/ 13 1027.7F
BUOY 41002       1550   66 73   80/ 14/ 17 1029.3F   5/ 8   3/120/ 8
BUOY 41010       NOT AVBL
ST AUGUSTINE FL  1600   67 67  110/  8/  9 1026.7F


$$



USA.gov is the U.S. government's official web portal to all federal, state and local government web resources and services.